Time,TemperatureF,DewpointF,PressureIn,WindDirection,WindDirectionDegrees,WindSpeedMPH,WindSpeedGustMPH,Humidity,HourlyPrecipIn,Conditions,Clouds,dailyrainin,SoftwareType,DateUTC
2015-01-28 00:01:00,71.7,69.6,29.72,NE,53,0.0,2.0,93,0.00,,,0.00,WeatherCatV1.15B25,2015-01-27 14:01:00,
2015-01-28 00:06:00,71.7,69.6,29.72,NE,40,0.0,0.0,93,0.03,,,0.01,WeatherCatV1.15B25,2015-01-27 14:06:00,
2015-01-28 00:11:00,71.6,69.5,29.72,NE,50,1.0,1.0,93,0.03,,,0.01,WeatherCatV1.15B25,2015-01-27 14:11:00,
2015-01-28 00:16:00,71.5,69.4,29.72,NE,49,0.0,1.0,93,0.05,,,0.02,WeatherCatV1.15B25,2015-01-27 14:16:00,
2015-01-28 00:21:00,71.4,69.3,29.72,ENE,61,0.0,4.0,93,0.05,,,0.02,WeatherCatV1.15B25,2015-01-27 14:21:00,
2015-01-28 00:26:00,71.3,69.2,29.72,NE,40,2.0,2.0,93,0.04,,,0.02,WeatherCatV1.15B25,2015-01-27 14:26:00,
2015-01-28 00:31:00,71.2,69.1,29.72,ENE,75,0.0,1.0,93,0.04,,,0.02,WeatherCatV1.15B25,2015-01-27 14:31:00,
2015-01-28 00:36:00,71.0,68.9,29.72,NE,39,0.0,2.0,93,0.04,,,0.02,WeatherCatV1.15B25,2015-01-27 14:36:00,
2015-01-28 00:41:00,71.0,68.9,29.72,ENE,63,0.0,1.0,93,0.03,,,0.02,WeatherCatV1.15B25,2015-01-27 14:41:00,
2015-01-28 00:46:00,70.9,68.8,29.71,ENE,73,1.0,3.0,93,0.00,,,0.02,WeatherCatV1.15B25,2015-01-27 14:46:00,
2015-01-28 00:51:00,70.8,68.7,29.71,ENE,57,2.0,4.0,93,0.00,,,0.03,WeatherCatV1.15B25,2015-01-27 14:51:00,
2015-01-28 00:56:00,70.6,68.5,29.70,NE,42,2.0,3.0,93,0.00,,,0.03,WeatherCatV1.15B25,2015-01-27 14:56:00,
2015-01-28 01:01:00,70.6,68.8,29.70,ENE,64,1.0,2.0,94,0.00,,,0.03,WeatherCatV1.15B25,2015-01-27 15:01:00,
2015-01-28 01:06:00,70.5,68.7,29.70,SE,133,1.0,4.0,94,0.00,,,0.03,WeatherCatV1.15B25,2015-01-27 15:06:00,
2015-01-28 01:11:00,70.3,68.5,29.70,SSW,196,0.0,1.0,94,0.00,,,0.03,WeatherCatV1.15B25,2015-01-27 15:11:00,
2015-01-28 01:16:00,70.2,68.4,29.70,NE,41,0.0,1.0,94,0.00,,,0.04,WeatherCatV1.15B25,2015-01-27 15:16:00,
2015-01-28 01:21:00,70.1,68.3,29.70,NE,36,0.0,0.0,94,0.09,,,0.05,WeatherCatV1.15B25,2015-01-27 15:21:00,
2015-01-28 01:26:00,69.9,68.4,29.69,NE,49,2.0,3.0,95,0.05,,,0.05,WeatherCatV1.15B25,2015-01-27 15:26:00,
2015-01-28 01:31:00,69.8,68.3,29.68,NE,39,0.0,3.0,95,0.03,,,0.05,WeatherCatV1.15B25,2015-01-27 15:31:00,
2015-01-28 01:36:00,69.7,67.9,29.68,NE,51,1.0,3.0,94,0.00,,,0.05,WeatherCatV1.15B25,2015-01-27 15:36:00,
2015-01-28 01:41:00,69.6,68.1,29.68,ENE,70,2.0,3.0,95,0.00,,,0.05,WeatherCatV1.15B25,2015-01-27 15:41:00,
2015-01-28 01:46:00,69.6,68.1,29.68,ENE,63,0.0,0.0,95,0.00,,,0.05,WeatherCatV1.15B25,2015-01-27 15:46:00,
2015-01-28 01:51:00,69.5,67.7,29.68,NE,48,0.0,3.0,94,0.00,,,0.05,WeatherCatV1.15B25,2015-01-27 15:51:00,
2015-01-28 01:56:00,69.4,67.9,29.68,NE,49,0.0,0.0,95,0.00,,,0.05,WeatherCatV1.15B25,2015-01-27 15:56:00,
2015-01-28 02:01:00,69.4,67.9,29.68,SSE,166,0.0,1.0,95,0.00,,,0.05,WeatherCatV1.15B25,2015-01-27 16:01:00,
2015-01-28 02:06:00,69.3,67.8,29.68,SW,220,0.0,1.0,95,0.00,,,0.05,WeatherCatV1.15B25,2015-01-27 16:06:00,
2015-01-28 02:11:00,69.2,67.7,29.68,South,186,0.0,0.0,95,0.00,,,0.05,WeatherCatV1.15B25,2015-01-27 16:11:00,
2015-01-28 02:16:00,69.1,67.6,29.68,SSE,161,0.0,1.0,95,0.00,,,0.05,WeatherCatV1.15B25,2015-01-27 16:16:00,
2015-01-28 02:21:00,69.0,67.8,29.67,SSE,163,0.0,1.0,96,0.00,,,0.05,WeatherCatV1.15B25,2015-01-27 16:21:00,
2015-01-28 02:26:00,69.0,67.8,29.67,SSE,162,0.0,1.0,96,0.00,,,0.05,WeatherCatV1.15B25,2015-01-27 16:26:00,
2015-01-28 02:31:00,68.9,67.7,29.67,South,170,0.0,1.0,96,0.00,,,0.05,WeatherCatV1.15B25,2015-01-27 16:31:00,
2015-01-28 02:36:00,68.7,67.5,29.67,South,172,0.0,1.0,96,0.00,,,0.05,WeatherCatV1.15B25,2015-01-27 16:36:00,
2015-01-28 02:41:00,68.6,67.4,29.67,SSW,198,0.0,1.0,96,0.00,,,0.05,WeatherCatV1.15B25,2015-01-27 16:41:00,
2015-01-28 02:46:00,68.4,66.9,29.67,South,176,0.0,1.0,95,0.00,,,0.05,WeatherCatV1.15B25,2015-01-27 16:46:00,
2015-01-28 02:51:00,68.3,66.8,29.67,South,172,1.0,2.0,95,0.00,,,0.05,WeatherCatV1.15B25,2015-01-27 16:51:00,
2015-01-28 02:56:00,68.1,66.6,29.67,South,173,0.0,2.0,95,0.00,,,0.05,WeatherCatV1.15B25,2015-01-27 16:56:00,
2015-01-28 03:01:00,68.1,66.6,29.67,SSW,201,0.0,0.0,95,0.00,,,0.05,WeatherCatV1.15B25,2015-01-27 17:01:00,
2015-01-28 03:06:00,68.0,66.5,29.67,SSW,198,1.0,1.0,95,0.00,,,0.05,WeatherCatV1.15B25,2015-01-27 17:06:00,
2015-01-28 03:11:00,67.9,66.4,29.67,SW,220,0.0,1.0,95,0.00,,,0.05,WeatherCatV1.15B25,2015-01-27 17:11:00,
2015-01-28 03:16:00,67.8,66.3,29.66,South,179,0.0,3.0,95,0.00,,,0.05,WeatherCatV1.15B25,2015-01-27 17:16:00,
2015-01-28 03:21:00,67.7,66.2,29.66,ESE,112,0.0,1.0,95,0.00,,,0.05,WeatherCatV1.15B25,2015-01-27 17:21:00,
2015-01-28 03:26:00,67.6,66.1,29.66,SSE,166,0.0,1.0,95,0.00,,,0.05,WeatherCatV1.15B25,2015-01-27 17:26:00,
2015-01-28 03:31:00,67.5,66.0,29.66,SSW,208,0.0,0.0,95,0.00,,,0.05,WeatherCatV1.15B25,2015-01-27 17:31:00,
2015-01-28 03:36:00,67.5,66.0,29.67,South,186,0.0,1.0,95,0.00,,,0.05,WeatherCatV1.15B25,2015-01-27 17:36:00,
2015-01-28 03:41:00,67.4,65.9,29.66,SW,227,0.0,1.0,95,0.00,,,0.05,WeatherCatV1.15B25,2015-01-27 17:41:00,
2015-01-28 03:46:00,67.4,65.6,29.66,NE,40,0.0,2.0,94,0.00,,,0.05,WeatherCatV1.15B25,2015-01-27 17:46:00,
2015-01-28 03:51:00,67.4,65.6,29.66,NE,34,1.0,1.0,94,0.00,,,0.05,WeatherCatV1.15B25,2015-01-27 17:51:00,
2015-01-28 03:56:00,67.4,65.6,29.66,ENE,58,0.0,1.0,94,0.00,,,0.05,WeatherCatV1.15B25,2015-01-27 17:56:00,
2015-01-28 04:01:00,67.3,65.5,29.66,NE,38,0.0,3.0,94,0.00,,,0.05,WeatherCatV1.15B25,2015-01-27 18:01:00,
2015-01-28 04:06:00,67.1,65.3,29.66,NNW,330,0.0,0.0,94,0.00,,,0.06,WeatherCatV1.15B25,2015-01-27 18:06:00,
2015-01-28 04:11:00,67.1,65.3,29.66,South,171,0.0,2.0,94,0.00,,,0.06,WeatherCatV1.15B25,2015-01-27 18:11:00,
2015-01-28 04:16:00,66.9,65.1,29.66,SSW,208,0.0,2.0,94,0.00,,,0.06,WeatherCatV1.15B25,2015-01-27 18:16:00,
2015-01-28 04:21:00,66.7,64.9,29.66,South,172,1.0,2.0,94,0.00,,,0.06,WeatherCatV1.15B25,2015-01-27 18:21:00,
2015-01-28 04:26:00,66.7,64.9,29.67,South,172,0.0,0.0,94,0.00,,,0.06,WeatherCatV1.15B25,2015-01-27 18:26:00,
2015-01-28 04:31:00,66.7,64.9,29.67,South,183,0.0,2.0,94,0.00,,,0.06,WeatherCatV1.15B25,2015-01-27 18:31:00,
2015-01-28 04:36:00,66.7,64.9,29.67,South,170,0.0,1.0,94,0.00,,,0.06,WeatherCatV1.15B25,2015-01-27 18:36:00,
2015-01-28 04:41:00,66.6,64.8,29.67,South,184,0.0,0.0,94,0.00,,,0.06,WeatherCatV1.15B25,2015-01-27 18:41:00,
2015-01-28 04:46:00,66.6,64.8,29.67,South,190,0.0,0.0,94,0.00,,,0.06,WeatherCatV1.15B25,2015-01-27 18:46:00,
2015-01-28 04:51:00,66.6,64.8,29.67,South,190,0.0,1.0,94,0.00,,,0.06,WeatherCatV1.15B25,2015-01-27 18:51:00,
2015-01-28 04:56:00,66.6,64.8,29.67,South,190,0.0,1.0,94,0.00,,,0.06,WeatherCatV1.15B25,2015-01-27 18:56:00,
2015-01-28 05:01:00,66.6,64.8,29.67,South,173,0.0,1.0,94,0.00,,,0.06,WeatherCatV1.15B25,2015-01-27 19:01:00,
2015-01-28 05:06:00,66.5,64.7,29.67,SSE,162,1.0,2.0,94,0.00,,,0.06,WeatherCatV1.15B25,2015-01-27 19:06:00,
2015-01-28 05:11:00,66.5,64.7,29.67,South,170,1.0,1.0,94,0.00,,,0.06,WeatherCatV1.15B25,2015-01-27 19:11:00,
2015-01-28 05:16:00,66.4,64.6,29.67,SSW,206,0.0,1.0,94,0.00,,,0.06,WeatherCatV1.15B25,2015-01-27 19:16:00,
2015-01-28 05:21:00,66.4,64.6,29.67,South,180,0.0,0.0,94,0.00,,,0.06,WeatherCatV1.15B25,2015-01-27 19:21:00,
2015-01-28 05:26:00,66.4,64.6,29.67,South,180,0.0,0.0,94,0.00,,,0.06,WeatherCatV1.15B25,2015-01-27 19:26:00,
2015-01-28 05:31:00,66.3,64.5,29.67,South,187,0.0,1.0,94,0.00,,,0.06,WeatherCatV1.15B25,2015-01-27 19:31:00,
2015-01-28 05:36:00,66.3,64.5,29.67,SSW,193,0.0,1.0,94,0.00,,,0.06,WeatherCatV1.15B25,2015-01-27 19:36:00,
2015-01-28 05:41:00,66.4,64.6,29.67,SSW,193,0.0,0.0,94,0.00,,,0.06,WeatherCatV1.15B25,2015-01-27 19:41:00,
2015-01-28 05:46:00,66.4,64.3,29.67,SSE,168,0.0,3.0,93,0.00,,,0.06,WeatherCatV1.15B25,2015-01-27 19:46:00,
2015-01-28 05:51:00,66.5,64.4,29.67,South,169,0.0,1.0,93,0.00,,,0.06,WeatherCatV1.15B25,2015-01-27 19:51:00,
2015-01-28 05:56:00,66.4,64.3,29.68,NW,315,0.0,1.0,93,0.00,,,0.06,WeatherCatV1.15B25,2015-01-27 19:56:00,
2015-01-28 06:01:00,66.5,64.4,29.68,South,170,0.0,2.0,93,0.00,,,0.06,WeatherCatV1.15B25,2015-01-27 20:01:00,
2015-01-28 06:06:00,66.4,64.3,29.68,SSE,168,0.0,1.0,93,0.00,,,0.06,WeatherCatV1.15B25,2015-01-27 20:06:00,
2015-01-28 06:11:00,66.3,64.5,29.68,South,189,1.0,1.0,94,0.00,,,0.07,WeatherCatV1.15B25,2015-01-27 20:11:00,
2015-01-28 06:16:00,66.2,64.4,29.68,SW,218,0.0,0.0,94,0.00,,,0.07,WeatherCatV1.15B25,2015-01-27 20:16:00,
2015-01-28 06:21:00,66.2,64.4,29.68,South,170,0.0,2.0,94,0.05,,,0.08,WeatherCatV1.15B25,2015-01-27 20:21:00,
2015-01-28 06:26:00,66.2,64.4,29.68,South,170,0.0,1.0,94,0.07,,,0.09,WeatherCatV1.15B25,2015-01-27 20:26:00,
2015-01-28 06:31:00,66.2,64.4,29.69,SW,236,0.0,0.0,94,0.07,,,0.09,WeatherCatV1.15B25,2015-01-27 20:31:00,
2015-01-28 06:36:00,66.2,64.4,29.69,SE,134,1.0,2.0,94,0.07,,,0.09,WeatherCatV1.15B25,2015-01-27 20:36:00,
2015-01-28 06:41:00,66.2,64.7,29.69,NE,34,0.0,0.0,95,0.05,,,0.09,WeatherCatV1.15B25,2015-01-27 20:41:00,
2015-01-28 06:46:00,66.2,64.7,29.69,SSW,193,0.0,1.0,95,0.04,,,0.10,WeatherCatV1.15B25,2015-01-27 20:46:00,
2015-01-28 06:51:00,66.2,64.7,29.69,ESE,116,0.0,2.0,95,0.04,,,0.10,WeatherCatV1.15B25,2015-01-27 20:51:00,
2015-01-28 06:56:00,66.2,64.7,29.69,NNE,18,0.0,3.0,95,0.04,,,0.10,WeatherCatV1.15B25,2015-01-27 20:56:00,
2015-01-28 07:01:00,66.3,64.8,29.69,NNE,28,0.0,1.0,95,0.00,,,0.10,WeatherCatV1.15B25,2015-01-27 21:01:00,
2015-01-28 07:06:00,66.4,64.9,29.69,NNE,27,0.0,0.0,95,0.00,,,0.10,WeatherCatV1.15B25,2015-01-27 21:06:00,
2015-01-28 07:11:00,66.4,64.9,29.69,ENE,68,1.0,1.0,95,0.00,,,0.11,WeatherCatV1.15B25,2015-01-27 21:11:00,
2015-01-28 07:16:00,66.6,65.1,29.69,ENE,70,0.0,1.0,95,0.00,,,0.11,WeatherCatV1.15B25,2015-01-27 21:16:00,
2015-01-28 07:21:00,66.6,65.1,29.68,SSE,158,0.0,2.0,95,0.00,,,0.11,WeatherCatV1.15B25,2015-01-27 21:21:00,
2015-01-28 07:26:00,66.6,65.1,29.68,ESE,105,0.0,1.0,95,0.00,,,0.11,WeatherCatV1.15B25,2015-01-27 21:26:00,
2015-01-28 07:31:00,66.8,65.3,29.68,NE,35,0.0,1.0,95,0.00,,,0.11,WeatherCatV1.15B25,2015-01-27 21:31:00,
2015-01-28 07:36:00,67.0,65.5,29.68,NE,41,1.0,2.0,95,0.00,,,0.11,WeatherCatV1.15B25,2015-01-27 21:36:00,
2015-01-28 07:41:00,67.2,65.7,29.68,NE,41,0.0,0.0,95,0.00,,,0.12,WeatherCatV1.15B25,2015-01-27 21:41:00,
2015-01-28 07:46:00,67.3,65.8,29.68,NE,42,0.0,1.0,95,0.00,,,0.12,WeatherCatV1.15B25,2015-01-27 21:46:00,
2015-01-28 07:51:00,67.6,66.1,29.68,NE,42,0.0,2.0,95,0.00,,,0.12,WeatherCatV1.15B25,2015-01-27 21:51:00,
2015-01-28 07:56:00,67.9,66.4,29.69,SSW,193,0.0,1.0,95,0.00,,,0.12,WeatherCatV1.15B25,2015-01-27 21:56:00,
2015-01-28 08:01:00,68.1,66.9,29.69,South,172,1.0,2.0,96,0.00,,,0.12,WeatherCatV1.15B25,2015-01-27 22:01:00,
2015-01-28 08:06:00,68.2,66.7,29.70,SSE,165,0.0,2.0,95,0.00,,,0.13,WeatherCatV1.15B25,2015-01-27 22:06:00,
2015-01-28 08:11:00,68.3,66.5,29.70,South,169,1.0,3.0,94,0.00,,,0.13,WeatherCatV1.15B25,2015-01-27 22:11:00,
2015-01-28 08:16:00,68.2,66.7,29.70,WSW,239,1.0,1.0,95,0.00,,,0.13,WeatherCatV1.15B25,2015-01-27 22:16:00,
2015-01-28 08:21:00,68.0,66.2,29.70,South,179,0.0,2.0,94,0.00,,,0.13,WeatherCatV1.15B25,2015-01-27 22:21:00,
2015-01-28 08:26:00,68.1,66.3,29.70,SSW,200,1.0,1.0,94,0.00,,,0.13,WeatherCatV1.15B25,2015-01-27 22:26:00,
2015-01-28 08:31:00,68.2,66.4,29.70,South,170,1.0,5.0,94,0.00,,,0.13,WeatherCatV1.15B25,2015-01-27 22:31:00,
2015-01-28 08:36:00,68.3,66.5,29.71,South,179,1.0,1.0,94,0.00,,,0.13,WeatherCatV1.15B25,2015-01-27 22:36:00,
2015-01-28 08:41:00,68.4,66.6,29.71,South,177,4.0,5.0,94,0.00,,,0.13,WeatherCatV1.15B25,2015-01-27 22:41:00,
2015-01-28 08:47:00,68.5,66.7,29.71,WSW,251,0.0,1.0,94,0.00,,,0.13,WeatherCatV1.15B25,2015-01-27 22:47:00,
2015-01-28 08:52:00,68.7,66.6,29.70,NNE,28,6.0,6.0,93,0.00,,,0.13,WeatherCatV1.15B25,2015-01-27 22:52:00,
2015-01-28 08:57:00,68.7,66.6,29.70,SSW,205,1.0,4.0,93,0.00,,,0.13,WeatherCatV1.15B25,2015-01-27 22:57:00,
2015-01-28 09:02:00,68.8,67.0,29.71,South,176,2.0,2.0,94,0.00,,,0.13,WeatherCatV1.15B25,2015-01-27 23:02:00,
2015-01-28 09:07:00,68.8,66.7,29.72,South,172,1.0,4.0,93,0.00,,,0.13,WeatherCatV1.15B25,2015-01-27 23:07:00,
2015-01-28 09:12:00,68.7,66.6,29.70,WSW,243,0.0,5.0,93,0.00,,,0.13,WeatherCatV1.15B25,2015-01-27 23:12:00,
2015-01-28 09:17:00,68.8,66.7,29.69,NNE,33,2.0,7.0,93,0.00,,,0.13,WeatherCatV1.15B25,2015-01-27 23:17:00,
2015-01-28 09:22:00,69.2,67.1,29.71,South,170,1.0,4.0,93,0.00,,,0.13,WeatherCatV1.15B25,2015-01-27 23:22:00,
2015-01-28 09:27:00,69.5,67.4,29.71,South,177,1.0,3.0,93,0.00,,,0.13,WeatherCatV1.15B25,2015-01-27 23:27:00,
2015-01-28 09:32:00,70.0,67.6,29.71,South,170,0.0,3.0,92,0.00,,,0.13,WeatherCatV1.15B25,2015-01-27 23:32:00,
2015-01-28 09:37:00,70.2,67.4,29.71,South,180,1.0,5.0,91,0.00,,,0.13,WeatherCatV1.15B25,2015-01-27 23:37:00,
2015-01-28 09:42:00,70.7,67.6,29.71,SE,144,2.0,5.0,90,0.00,,,0.13,WeatherCatV1.15B25,2015-01-27 23:42:00,
2015-01-28 09:47:00,71.2,68.1,29.70,North,3,3.0,6.0,90,0.00,,,0.13,WeatherCatV1.15B25,2015-01-27 23:47:00,
2015-01-28 09:52:00,71.8,68.7,29.70,South,182,2.0,2.0,90,0.00,,,0.13,WeatherCatV1.15B25,2015-01-27 23:52:00,
2015-01-28 09:57:00,72.1,68.3,29.70,NE,37,0.0,2.0,88,0.00,,,0.13,WeatherCatV1.15B25,2015-01-27 23:57:00,
2015-01-28 10:02:00,72.3,68.2,29.70,SSW,206,1.0,2.0,87,0.00,,,0.13,WeatherCatV1.15B25,2015-01-28 00:02:00,
2015-01-28 10:07:00,72.4,68.3,29.70,SSE,163,2.0,2.0,87,0.00,,,0.13,WeatherCatV1.15B25,2015-01-28 00:07:00,
2015-01-28 10:12:00,72.4,68.0,29.71,SSE,166,3.0,5.0,86,0.00,,,0.13,WeatherCatV1.15B25,2015-01-28 00:12:00,
2015-01-28 10:17:00,72.6,68.5,29.71,SSE,163,0.0,3.0,87,0.00,,,0.13,WeatherCatV1.15B25,2015-01-28 00:17:00,
2015-01-28 10:22:00,73.0,68.9,29.70,SW,215,1.0,2.0,87,0.00,,,0.13,WeatherCatV1.15B25,2015-01-28 00:22:00,
2015-01-28 10:27:00,73.3,68.8,29.70,ESE,113,0.0,5.0,86,0.00,,,0.13,WeatherCatV1.15B25,2015-01-28 00:27:00,
2015-01-28 10:32:00,73.9,69.1,29.70,SSW,206,1.0,2.0,85,0.00,,,0.13,WeatherCatV1.15B25,2015-01-28 00:32:00,
2015-01-28 10:37:00,73.8,68.3,29.71,SSE,162,1.0,2.0,83,0.00,,,0.13,WeatherCatV1.15B25,2015-01-28 00:37:00,
2015-01-28 10:42:00,73.8,68.3,29.71,NE,44,1.0,3.0,83,0.00,,,0.13,WeatherCatV1.15B25,2015-01-28 00:42:00,
2015-01-28 10:47:00,73.8,68.3,29.71,ENE,58,1.0,4.0,83,0.00,,,0.13,WeatherCatV1.15B25,2015-01-28 00:47:00,
2015-01-28 10:52:00,74.1,68.6,29.71,South,176,0.0,1.0,83,0.00,,,0.13,WeatherCatV1.15B25,2015-01-28 00:52:00,
2015-01-28 10:57:00,74.2,68.0,29.71,NE,35,1.0,3.0,81,0.00,,,0.13,WeatherCatV1.15B25,2015-01-28 00:57:00,
2015-01-28 11:02:00,74.0,67.4,29.71,NE,34,1.0,6.0,80,0.00,,,0.13,WeatherCatV1.15B25,2015-01-28 01:02:00,
2015-01-28 11:07:00,73.7,67.5,29.71,NNE,28,0.0,3.0,81,0.00,,,0.13,WeatherCatV1.15B25,2015-01-28 01:07:00,
2015-01-28 11:12:00,73.6,67.8,29.71,SSE,157,3.0,3.0,82,0.00,,,0.13,WeatherCatV1.15B25,2015-01-28 01:12:00,
2015-01-28 11:17:00,73.6,67.8,29.70,SSW,211,0.0,1.0,82,0.00,,,0.13,WeatherCatV1.15B25,2015-01-28 01:17:00,
2015-01-28 11:22:00,73.7,67.8,29.70,South,186,1.0,1.0,82,0.00,,,0.13,WeatherCatV1.15B25,2015-01-28 01:22:00,
2015-01-28 11:27:00,73.9,67.7,29.70,SSE,167,0.0,1.0,81,0.00,,,0.13,WeatherCatV1.15B25,2015-01-28 01:27:00,
2015-01-28 11:32:00,74.5,68.3,29.70,South,169,1.0,2.0,81,0.00,,,0.13,WeatherCatV1.15B25,2015-01-28 01:32:00,
2015-01-28 11:37:00,75.1,69.2,29.70,SSE,160,1.0,1.0,82,0.00,,,0.13,WeatherCatV1.15B25,2015-01-28 01:37:00,
2015-01-28 11:42:00,75.9,68.9,29.70,SSE,165,1.0,2.0,79,0.00,,,0.13,WeatherCatV1.15B25,2015-01-28 01:42:00,
2015-01-28 11:47:00,76.0,67.5,29.70,SSW,207,3.0,5.0,75,0.00,,,0.13,WeatherCatV1.15B25,2015-01-28 01:47:00,
2015-01-28 11:52:00,76.1,68.3,29.70,South,180,0.0,1.0,77,0.00,,,0.13,WeatherCatV1.15B25,2015-01-28 01:52:00,
2015-01-28 11:57:00,76.4,67.9,29.70,SW,214,1.0,2.0,75,0.00,,,0.13,WeatherCatV1.15B25,2015-01-28 01:57:00,
2015-01-28 12:02:00,76.4,67.9,29.70,South,184,1.0,2.0,75,0.00,,,0.13,WeatherCatV1.15B25,2015-01-28 02:02:00,
2015-01-28 12:07:00,77.0,68.1,29.69,SE,132,3.0,3.0,74,0.00,,,0.13,WeatherCatV1.15B25,2015-01-28 02:07:00,
2015-01-28 12:12:00,77.0,67.7,29.69,NNE,30,3.0,3.0,73,0.00,,,0.13,WeatherCatV1.15B25,2015-01-28 02:12:00,
2015-01-28 12:17:00,77.4,68.4,29.69,South,189,1.0,3.0,74,0.00,,,0.13,WeatherCatV1.15B25,2015-01-28 02:17:00,
2015-01-28 12:22:00,77.4,67.2,29.69,NE,35,1.0,3.0,71,0.00,,,0.13,WeatherCatV1.15B25,2015-01-28 02:22:00,
2015-01-28 12:27:00,77.5,68.5,29.69,NE,43,1.0,1.0,74,0.00,,,0.13,WeatherCatV1.15B25,2015-01-28 02:27:00,
2015-01-28 12:32:00,77.9,68.1,29.69,SSE,162,1.0,3.0,72,0.00,,,0.13,WeatherCatV1.15B25,2015-01-28 02:32:00,
2015-01-28 12:37:00,78.1,67.5,29.69,South,190,2.0,4.0,70,0.00,,,0.13,WeatherCatV1.15B25,2015-01-28 02:37:00,
2015-01-28 12:42:00,78.7,68.1,29.69,South,173,1.0,1.0,70,0.00,,,0.13,WeatherCatV1.15B25,2015-01-28 02:42:00,
2015-01-28 12:47:00,78.8,68.2,29.69,SSW,208,1.0,5.0,70,0.00,,,0.13,WeatherCatV1.15B25,2015-01-28 02:47:00,
2015-01-28 12:52:00,79.0,68.4,29.69,South,169,0.0,1.0,70,0.00,,,0.13,WeatherCatV1.15B25,2015-01-28 02:52:00,
2015-01-28 12:57:00,79.0,67.9,29.69,SSE,165,1.0,2.0,69,0.00,,,0.13,WeatherCatV1.15B25,2015-01-28 02:57:00,
2015-01-28 13:02:00,78.8,68.6,29.69,SSE,159,0.0,2.0,71,0.00,,,0.13,WeatherCatV1.15B25,2015-01-28 03:02:00,
2015-01-28 13:07:00,78.9,67.8,29.68,NE,46,2.0,3.0,69,0.00,,,0.13,WeatherCatV1.15B25,2015-01-28 03:07:00,
2015-01-28 13:12:00,79.3,68.6,29.68,SSE,158,1.0,2.0,70,0.00,,,0.13,WeatherCatV1.15B25,2015-01-28 03:12:00,
2015-01-28 13:17:00,79.5,68.0,29.68,SE,137,3.0,3.0,68,0.00,,,0.13,WeatherCatV1.15B25,2015-01-28 03:17:00,
2015-01-28 13:22:00,79.7,69.4,29.68,South,182,2.0,2.0,71,0.00,,,0.13,WeatherCatV1.15B25,2015-01-28 03:22:00,
2015-01-28 13:27:00,80.0,68.0,29.68,NE,37,2.0,3.0,67,0.00,,,0.13,WeatherCatV1.15B25,2015-01-28 03:27:00,
2015-01-28 13:32:00,80.0,69.3,29.68,SSW,201,1.0,1.0,70,0.00,,,0.13,WeatherCatV1.15B25,2015-01-28 03:32:00,
2015-01-28 13:37:00,80.2,68.2,29.67,South,173,1.0,3.0,67,0.00,,,0.13,WeatherCatV1.15B25,2015-01-28 03:37:00,
2015-01-28 13:42:00,80.5,68.9,29.67,South,170,2.0,2.0,68,0.00,,,0.13,WeatherCatV1.15B25,2015-01-28 03:42:00,
2015-01-28 13:47:00,80.3,68.3,29.67,North,354,2.0,5.0,67,0.00,,,0.13,WeatherCatV1.15B25,2015-01-28 03:47:00,
2015-01-28 13:52:00,80.7,69.6,29.67,South,177,2.0,2.0,69,0.00,,,0.13,WeatherCatV1.15B25,2015-01-28 03:52:00,
2015-01-28 13:57:00,81.0,69.0,29.67,WSW,246,1.0,4.0,67,0.00,,,0.13,WeatherCatV1.15B25,2015-01-28 03:57:00,
2015-01-28 14:02:00,81.4,69.4,29.67,East,83,2.0,2.0,67,0.00,,,0.13,WeatherCatV1.15B25,2015-01-28 04:02:00,
2015-01-28 14:07:00,81.6,68.7,29.67,NE,48,2.0,4.0,65,0.00,,,0.13,WeatherCatV1.15B25,2015-01-28 04:07:00,
2015-01-28 14:12:00,81.2,69.2,29.67,SW,214,0.0,1.0,67,0.00,,,0.13,WeatherCatV1.15B25,2015-01-28 04:12:00,
2015-01-28 14:17:00,80.4,68.0,29.67,NE,52,2.0,5.0,66,0.00,,,0.13,WeatherCatV1.15B25,2015-01-28 04:17:00,
2015-01-28 14:22:00,79.7,67.7,29.67,NNE,28,0.0,5.0,67,0.00,,,0.13,WeatherCatV1.15B25,2015-01-28 04:22:00,
2015-01-28 14:27:00,79.2,68.1,29.67,NE,56,2.0,6.0,69,0.00,,,0.13,WeatherCatV1.15B25,2015-01-28 04:27:00,
2015-01-28 14:32:00,78.8,67.7,29.67,SE,135,2.0,4.0,69,0.00,,,0.13,WeatherCatV1.15B25,2015-01-28 04:32:00,
2015-01-28 14:37:00,78.8,68.6,29.67,ENE,57,1.0,4.0,71,0.00,,,0.13,WeatherCatV1.15B25,2015-01-28 04:37:00,
2015-01-28 14:42:00,78.9,68.3,29.67,ENE,64,4.0,5.0,70,0.00,,,0.13,WeatherCatV1.15B25,2015-01-28 04:42:00,
2015-01-28 14:47:00,78.5,67.9,29.67,ENE,63,6.0,8.0,70,0.00,,,0.13,WeatherCatV1.15B25,2015-01-28 04:47:00,
2015-01-28 14:52:00,78.3,68.1,29.67,NNE,30,4.0,7.0,71,0.00,,,0.13,WeatherCatV1.15B25,2015-01-28 04:52:00,
2015-01-28 14:57:00,78.2,68.4,29.67,ENE,60,6.0,8.0,72,0.00,,,0.13,WeatherCatV1.15B25,2015-01-28 04:57:00,
2015-01-28 15:02:00,78.0,68.2,29.67,NE,42,5.0,11.0,72,0.00,,,0.13,WeatherCatV1.15B25,2015-01-28 05:02:00,
2015-01-28 15:07:00,78.1,69.1,29.67,SSE,151,2.0,3.0,74,0.00,,,0.13,WeatherCatV1.15B25,2015-01-28 05:07:00,
2015-01-28 15:12:00,78.1,68.3,29.67,ENE,61,3.0,7.0,72,0.00,,,0.13,WeatherCatV1.15B25,2015-01-28 05:12:00,
2015-01-28 15:17:00,77.7,67.5,29.67,ENE,77,3.0,8.0,71,0.00,,,0.13,WeatherCatV1.15B25,2015-01-28 05:17:00,
2015-01-28 15:22:00,78.3,67.7,29.67,NNE,26,3.0,10.0,70,0.00,,,0.13,WeatherCatV1.15B25,2015-01-28 05:22:00,
2015-01-28 15:27:00,78.8,66.9,29.67,ESE,120,3.0,7.0,67,0.00,,,0.13,WeatherCatV1.15B25,2015-01-28 05:27:00,
2015-01-28 15:32:00,78.7,67.2,29.67,North,352,4.0,12.0,68,0.00,,,0.13,WeatherCatV1.15B25,2015-01-28 05:32:00,
2015-01-28 15:37:00,77.9,66.9,29.67,ENE,63,1.0,6.0,69,0.00,,,0.13,WeatherCatV1.15B25,2015-01-28 05:37:00,
2015-01-28 15:42:00,77.7,67.1,29.68,NE,39,1.0,3.0,70,0.00,,,0.13,WeatherCatV1.15B25,2015-01-28 05:42:00,
2015-01-28 15:47:00,77.8,66.8,29.67,ENE,60,1.0,4.0,69,0.00,,,0.13,WeatherCatV1.15B25,2015-01-28 05:47:00,
2015-01-28 15:52:00,77.8,65.9,29.67,NW,316,1.0,4.0,67,0.00,,,0.13,WeatherCatV1.15B25,2015-01-28 05:52:00,
2015-01-28 15:57:00,77.9,66.5,29.67,ESE,103,0.0,4.0,68,0.00,,,0.13,WeatherCatV1.15B25,2015-01-28 05:57:00,
2015-01-28 16:02:00,78.5,67.0,29.68,NW,326,1.0,2.0,68,0.00,,,0.13,WeatherCatV1.15B25,2015-01-28 06:02:00,
2015-01-28 16:07:00,78.4,65.6,29.67,NNW,331,0.0,7.0,65,0.00,,,0.13,WeatherCatV1.15B25,2015-01-28 06:07:00,
2015-01-28 16:12:00,78.7,67.2,29.67,NNW,343,3.0,3.0,68,0.00,,,0.13,WeatherCatV1.15B25,2015-01-28 06:12:00,
2015-01-28 16:17:00,78.8,66.5,29.67,North,7,2.0,5.0,66,0.00,,,0.13,WeatherCatV1.15B25,2015-01-28 06:17:00,
2015-01-28 16:22:00,78.5,65.7,29.67,ENE,63,3.0,6.0,65,0.00,,,0.13,WeatherCatV1.15B25,2015-01-28 06:22:00,
2015-01-28 16:27:00,78.1,65.8,29.67,NE,34,5.0,11.0,66,0.00,,,0.13,WeatherCatV1.15B25,2015-01-28 06:27:00,
2015-01-28 16:32:00,77.9,66.0,29.68,NNE,17,1.0,2.0,67,0.00,,,0.13,WeatherCatV1.15B25,2015-01-28 06:32:00,
2015-01-28 16:37:00,77.7,66.3,29.68,NNW,348,2.0,9.0,68,0.00,,,0.13,WeatherCatV1.15B25,2015-01-28 06:37:00,
2015-01-28 16:42:00,77.6,66.6,29.68,NNE,23,1.0,3.0,69,0.00,,,0.13,WeatherCatV1.15B25,2015-01-28 06:42:00,
2015-01-28 16:47:00,77.5,66.1,29.68,NNW,334,2.0,3.0,68,0.00,,,0.13,WeatherCatV1.15B25,2015-01-28 06:47:00,
2015-01-28 16:52:00,77.4,66.4,29.68,NW,326,1.0,4.0,69,0.00,,,0.13,WeatherCatV1.15B25,2015-01-28 06:52:00,
2015-01-28 16:57:00,77.0,65.2,29.68,NW,322,5.0,9.0,67,0.00,,,0.13,WeatherCatV1.15B25,2015-01-28 06:57:00,
2015-01-28 17:02:00,76.7,65.3,29.68,NNE,15,2.0,5.0,68,0.00,,,0.13,WeatherCatV1.15B25,2015-01-28 07:02:00,
2015-01-28 17:07:00,76.6,65.2,29.68,NNW,340,2.0,6.0,68,0.00,,,0.13,WeatherCatV1.15B25,2015-01-28 07:07:00,
2015-01-28 17:12:00,76.4,65.0,29.69,NNW,343,3.0,8.0,68,0.00,,,0.13,WeatherCatV1.15B25,2015-01-28 07:12:00,
2015-01-28 17:17:00,76.3,64.9,29.69,NW,326,2.0,10.0,68,0.00,,,0.13,WeatherCatV1.15B25,2015-01-28 07:17:00,
2015-01-28 17:22:00,76.2,64.8,29.69,NNW,333,1.0,4.0,68,0.00,,,0.13,WeatherCatV1.15B25,2015-01-28 07:22:00,
2015-01-28 17:27:00,76.1,65.2,29.69,NNE,14,1.0,4.0,69,0.00,,,0.13,WeatherCatV1.15B25,2015-01-28 07:27:00,
2015-01-28 17:32:00,76.1,65.2,29.69,North,5,1.0,4.0,69,0.00,,,0.13,WeatherCatV1.15B25,2015-01-28 07:32:00,
2015-01-28 17:37:00,76.1,65.2,29.69,NNW,333,1.0,4.0,69,0.00,,,0.13,WeatherCatV1.15B25,2015-01-28 07:37:00,
2015-01-28 17:42:00,76.0,65.1,29.69,North,359,3.0,6.0,69,0.00,,,0.13,WeatherCatV1.15B25,2015-01-28 07:42:00,
2015-01-28 17:47:00,75.9,65.0,29.70,NW,323,3.0,6.0,69,0.00,,,0.13,WeatherCatV1.15B25,2015-01-28 07:47:00,
2015-01-28 17:52:00,75.6,64.7,29.70,NNW,337,3.0,7.0,69,0.00,,,0.13,WeatherCatV1.15B25,2015-01-28 07:52:00,
2015-01-28 17:57:00,75.3,64.4,29.71,NW,322,3.0,5.0,69,0.00,,,0.13,WeatherCatV1.15B25,2015-01-28 07:57:00,
2015-01-28 18:02:00,75.1,64.2,29.71,NNW,331,3.0,9.0,69,0.00,,,0.13,WeatherCatV1.15B25,2015-01-28 08:02:00,
2015-01-28 18:07:00,75.0,64.5,29.71,North,4,2.0,3.0,70,0.00,,,0.13,WeatherCatV1.15B25,2015-01-28 08:07:00,
2015-01-28 18:12:00,74.9,64.8,29.71,North,358,0.0,1.0,71,0.00,,,0.13,WeatherCatV1.15B25,2015-01-28 08:12:00,
2015-01-28 18:17:00,74.8,64.3,29.71,NNE,17,1.0,3.0,70,0.00,,,0.13,WeatherCatV1.15B25,2015-01-28 08:17:00,
2015-01-28 18:22:00,74.8,64.3,29.71,NNW,341,2.0,8.0,70,0.00,,,0.13,WeatherCatV1.15B25,2015-01-28 08:22:00,
2015-01-28 18:27:00,74.7,64.2,29.71,NNW,331,0.0,3.0,70,0.00,,,0.13,WeatherCatV1.15B25,2015-01-28 08:27:00,
2015-01-28 18:32:00,74.6,64.2,29.71,NNW,337,1.0,8.0,70,0.00,,,0.13,WeatherCatV1.15B25,2015-01-28 08:32:00,
2015-01-28 18:37:00,74.6,64.2,29.72,NW,326,3.0,4.0,70,0.00,,,0.13,WeatherCatV1.15B25,2015-01-28 08:37:00,
2015-01-28 18:42:00,74.6,63.7,29.72,NNW,330,1.0,4.0,69,0.00,,,0.13,WeatherCatV1.15B25,2015-01-28 08:42:00,
2015-01-28 18:47:00,74.6,64.2,29.72,NNW,327,3.0,4.0,70,0.00,,,0.13,WeatherCatV1.15B25,2015-01-28 08:47:00,
2015-01-28 18:52:00,74.6,64.2,29.73,North,356,0.0,1.0,70,0.00,,,0.13,WeatherCatV1.15B25,2015-01-28 08:52:00,
2015-01-28 18:57:00,74.5,64.1,29.73,NNW,329,0.0,2.0,70,0.00,,,0.13,WeatherCatV1.15B25,2015-01-28 08:57:00,
2015-01-28 19:02:00,74.4,64.4,29.73,NW,326,2.0,3.0,71,0.00,,,0.13,WeatherCatV1.15B25,2015-01-28 09:02:00,
2015-01-28 19:07:00,74.4,64.4,29.72,NNW,336,1.0,4.0,71,0.00,,,0.13,WeatherCatV1.15B25,2015-01-28 09:07:00,
2015-01-28 19:12:00,74.3,64.3,29.72,NNW,347,0.0,1.0,71,0.00,,,0.13,WeatherCatV1.15B25,2015-01-28 09:12:00,
2015-01-28 19:17:00,74.2,64.2,29.72,NW,323,0.0,3.0,71,0.00,,,0.13,WeatherCatV1.15B25,2015-01-28 09:17:00,
2015-01-28 19:22:00,74.2,64.6,29.73,NNW,337,2.0,4.0,72,0.00,,,0.13,WeatherCatV1.15B25,2015-01-28 09:22:00,
2015-01-28 19:27:00,74.2,65.0,29.73,NW,312,2.0,4.0,73,0.00,,,0.13,WeatherCatV1.15B25,2015-01-28 09:27:00,
2015-01-28 19:32:00,74.0,64.8,29.73,NNW,343,0.0,1.0,73,0.00,,,0.13,WeatherCatV1.15B25,2015-01-28 09:32:00,
2015-01-28 19:37:00,73.7,65.3,29.73,NNE,13,0.0,2.0,75,0.00,,,0.13,WeatherCatV1.15B25,2015-01-28 09:37:00,
2015-01-28 19:42:00,73.3,65.3,29.73,NNW,327,0.0,1.0,76,0.00,,,0.13,WeatherCatV1.15B25,2015-01-28 09:42:00,
2015-01-28 19:47:00,72.9,65.3,29.74,NNE,18,0.0,2.0,77,0.00,,,0.13,WeatherCatV1.15B25,2015-01-28 09:47:00,
2015-01-28 19:52:00,72.5,64.9,29.74,North,352,0.0,0.0,77,0.00,,,0.13,WeatherCatV1.15B25,2015-01-28 09:52:00,
2015-01-28 19:57:00,72.2,64.9,29.74,NNW,333,0.0,0.0,78,0.00,,,0.13,WeatherCatV1.15B25,2015-01-28 09:57:00,
2015-01-28 20:02:00,72.0,64.8,29.74,ENE,60,0.0,1.0,78,0.00,,,0.13,WeatherCatV1.15B25,2015-01-28 10:02:00,
2015-01-28 20:07:00,71.7,64.8,29.74,North,355,0.0,2.0,79,0.00,,,0.13,WeatherCatV1.15B25,2015-01-28 10:07:00,